• In Hungary
  • List of Countries
  • For 7 days
  • Water Temperature
  • Satellite Maps
  • Weather Map
  • News
  • Weather Widgets
  • user-avatar
    Login

    Hourly Weather Podlopatki

    Today, 19 September, Wednesday

    Time Temperature Precipitation Wind Pressure Humidity
    00:00 +8°C° 0 mm 2 mps 710 mmHg 92%
    01:00 +8°C° 0 mm 2 mps 710 mmHg 92%
    02:00 +8°C° 0 mm 2 mps 710 mmHg 91%
    03:00 +8°C° 0 mm 3 mps 711 mmHg 89%
    04:00 +8°C° 0 mm 3 mps 711 mmHg 88%
    05:00 +7°C° 0.1 mm 4 mps 711 mmHg 85%
    06:00 +7°C° 0.1 mm 4 mps 711 mmHg 83%
    07:00 +7°C° 0.1 mm 5 mps 711 mmHg 81%
    08:00 +7°C° 0.1 mm 6 mps 711 mmHg 79%
    09:00 +5°C° 0.1 mm 6 mps 711 mmHg 78%
    10:00 +5°C° 0.1 mm 7 mps 711 mmHg 76%
    11:00 +5°C° 0.9 mm 7 mps 711 mmHg 78%
    12:00 +4°C° 0.9 mm 7 mps 711 mmHg 79%
    13:00 +4°C° 0.9 mm 7 mps 711 mmHg 80%
    14:00 +4°C° 1.2 mm 7 mps 711 mmHg 81%
    15:00 +4°C° 1.2 mm 7 mps 711 mmHg 81%
    16:00 +2°C° 1.2 mm 8 mps 711 mmHg 82%
    17:00 +3°C° 1.5 mm 7 mps 711 mmHg 83%
    18:00 +3°C° 1.5 mm 7 mps 711 mmHg 84%
    19:00 +3°C° 1.5 mm 6 mps 711 mmHg 85%
    20:00 +3°C° 1.1 mm 6 mps 711 mmHg 84%
    21:00 +2°C° 1.1 mm 7 mps 711 mmHg 84%
    22:00 +2°C° 1.1 mm 7 mps 711 mmHg 83%
    23:00 +2°C° 1 mm 7 mps 710 mmHg 84%

    Tomorrow, 20 September, Thursday

    Time Temperature Precipitation Wind Pressure Humidity
    00:00 +2°C° 1 mm 7 mps 710 mmHg 85%
    01:00 +2°C° 1 mm 6 mps 710 mmHg 85%
    02:00 +2°C° 1.1 mm 7 mps 710 mmHg 86%
    03:00 0°C° 1.1 mm 7 mps 710 mmHg 86%
    04:00 0°C° 1.1 mm 8 mps 709 mmHg 86%
    05:00 0°C° 1.2 mm 8 mps 709 mmHg 87%
    06:00 0°C° 1.2 mm 8 mps 709 mmHg 87%
    07:00 0°C° 1.2 mm 8 mps 709 mmHg 87%
    08:00 0°C° 1.1 mm 8 mps 709 mmHg 88%
    09:00 0°C° 1.1 mm 9 mps 709 mmHg 88%
    10:00 0°C° 1.1 mm 10 mps 709 mmHg 88%
    11:00 0°C° 1.8 mm 10 mps 709 mmHg 89%
    12:00 0°C° 1.8 mm 10 mps 709 mmHg 89%
    13:00 0°C° 1.8 mm 10 mps 709 mmHg 89%
    14:00 +1°C° 1.4 mm 9 mps 710 mmHg 89%
    15:00 +1°C° 1.4 mm 9 mps 710 mmHg 89%
    16:00 +1°C° 1.4 mm 9 mps 711 mmHg 89%
    17:00 +1°C° 0.4 mm 8 mps 711 mmHg 89%
    18:00 +1°C° 0.4 mm 8 mps 712 mmHg 89%
    19:00 +1°C° 0.4 mm 8 mps 712 mmHg 89%
    20:00 +2°C° 0.1 mm 7 mps 713 mmHg 89%
    21:00 +2°C° 0.1 mm 6 mps 714 mmHg 89%
    22:00 +2°C° 0.1 mm 5 mps 714 mmHg 89%
    23:00 +2°C° 0 mm 5 mps 715 mmHg 89%

    Day after tomorrow, 21 September, Friday

    Time Temperature Precipitation Wind Pressure Humidity
    00:00 +2°C° 0 mm 5 mps 715 mmHg 89%
    01:00 +2°C° 0 mm 5 mps 715 mmHg 89%
    02:00 +1°C° 0 mm 4 mps 715 mmHg 89%
    03:00 +1°C° 0 mm 4 mps 715 mmHg 89%
    04:00 +1°C° 0 mm 4 mps 715 mmHg 89%
    05:00 +2°C° 0.1 mm 3 mps 716 mmHg 89%
    06:00 +2°C° 0.1 mm 3 mps 716 mmHg 90%
    07:00 +2°C° 0.1 mm 3 mps 717 mmHg 90%
    08:00 +3°C° 0.1 mm 3 mps 717 mmHg 88%
    09:00 +4°C° 0.1 mm 4 mps 717 mmHg 86%
    10:00 +5°C° 0.1 mm 5 mps 718 mmHg 84%
    11:00 +5°C° 0.1 mm 5 mps 718 mmHg 83%
    12:00 +6°C° 0.1 mm 5 mps 718 mmHg 83%
    13:00 +6°C° 0.1 mm 5 mps 718 mmHg 82%
    14:00 +6°C° 0.1 mm 4 mps 718 mmHg 82%
    15:00 +6°C° 0.1 mm 4 mps 718 mmHg 82%
    16:00 +7°C° 0.1 mm 3 mps 718 mmHg 82%
    17:00 +5°C° 0 mm 3 mps 718 mmHg 85%
    18:00 +5°C° 0 mm 2 mps 718 mmHg 88%
    19:00 +5°C° 0 mm 1 mps 719 mmHg 91%
    20:00 +4°C° 0 mm 1 mps 719 mmHg 91%
    21:00 +4°C° 0 mm 1 mps 719 mmHg 91%
    22:00 +3°C° 0 mm 1 mps 720 mmHg 92%
    23:00 +3°C° 0 mm 1 mps 720 mmHg 92%

    22 September, Saturday

    Time Temperature Precipitation Wind Pressure Humidity
    00:00 +3°C° 0 mm 1 mps 720 mmHg 92%
    01:00 +2°C° 0 mm 1 mps 720 mmHg 92%
    02:00 +2°C° 0 mm 1 mps 720 mmHg 92%
    03:00 +2°C° 0 mm 1 mps 720 mmHg 92%
    04:00 +1°C° 0 mm 0 mps 720 mmHg 92%
    05:00 +2°C° 0 mm 0 mps 720 mmHg 90%
    06:00 +2°C° 0 mm 0 mps 721 mmHg 89%
    07:00 +3°C° 0 mm 0 mps 721 mmHg 87%
    08:00 +5°C° 0 mm 1 mps 721 mmHg 84%
    09:00 +7°C° 0 mm 1 mps 721 mmHg 81%
    10:00 +8°C° 0 mm 1 mps 721 mmHg 78%
    11:00 +9°C° 0 mm 1 mps 721 mmHg 76%
    12:00 +10°C° 0 mm 1 mps 721 mmHg 73%
    13:00 +10°C° 0 mm 1 mps 721 mmHg 70%
    14:00 +11°C° 0 mm 1 mps 721 mmHg 71%
    15:00 +11°C° 0 mm 1 mps 721 mmHg 72%
    16:00 +10°C° 0 mm 2 mps 721 mmHg 73%
    17:00 +8°C° 0 mm 2 mps 721 mmHg 80%
    18:00 +6°C° 0 mm 2 mps 721 mmHg 87%
    19:00 +4°C° 0 mm 2 mps 721 mmHg 94%
    20:00 +4°C° 0 mm 2 mps 721 mmHg 94%
    21:00 +4°C° 0 mm 2 mps 721 mmHg 95%
    22:00 +3°C° 0 mm 2 mps 722 mmHg 96%
    23:00 +3°C° 0 mm 2 mps 721 mmHg 95%

    23 September, Sunday

    Time Temperature Precipitation Wind Pressure Humidity
    00:00 +3°C° 0 mm 1 mps 721 mmHg 95%
    01:00 +3°C° 0 mm 1 mps 721 mmHg 95%
    02:00 +3°C° 0 mm 1 mps 721 mmHg 94%
    03:00 +3°C° 0 mm 1 mps 721 mmHg 94%
    04:00 +2°C° 0 mm 1 mps 721 mmHg 93%
    05:00 +3°C° 0 mm 1 mps 721 mmHg 91%
    06:00 +3°C° 0 mm 1 mps 721 mmHg 89%
    07:00 +4°C° 0 mm 1 mps 721 mmHg 87%
    08:00 +5°C° 0 mm 1 mps 721 mmHg 83%
    09:00 +6°C° 0 mm 2 mps 721 mmHg 79%
    10:00 +7°C° 0 mm 2 mps 721 mmHg 76%
    11:00 +8°C° 0 mm 2 mps 720 mmHg 73%
    12:00 +10°C° 0 mm 2 mps 720 mmHg 70%
    13:00 +12°C° 0 mm 2 mps 719 mmHg 68%
    14:00 +12°C° 0 mm 2 mps 719 mmHg 69%
    15:00 +10°C° 0 mm 2 mps 719 mmHg 70%
    16:00 +10°C° 0 mm 2 mps 719 mmHg 72%
    17:00 +9°C° 0 mm 2 mps 719 mmHg 79%
    18:00 +7°C° 0 mm 2 mps 719 mmHg 86%
    19:00 +5°C° 0 mm 2 mps 719 mmHg 93%
    20:00 +4°C° 0 mm 2 mps 719 mmHg 94%
    21:00 +5°C° 0 mm 1 mps 719 mmHg 95%
    22:00 +4°C° 0 mm 1 mps 719 mmHg 96%
    23:00 +4°C° 0 mm 1 mps 719 mmHg 95%

    24 September, Monday

    Time Temperature Precipitation Wind Pressure Humidity
    00:00 +3°C° 0 mm 1 mps 718 mmHg 95%
    01:00 +3°C° 0 mm 1 mps 718 mmHg 94%
    02:00 +2°C° 0 mm 1 mps 718 mmHg 93%
    03:00 +2°C° 0 mm 1 mps 718 mmHg 93%
    04:00 +2°C° 0 mm 1 mps 718 mmHg 92%
    05:00 +3°C° 0 mm 1 mps 718 mmHg 89%
    06:00 +3°C° 0 mm 1 mps 718 mmHg 85%
    07:00 +4°C° 0 mm 1 mps 718 mmHg 82%
    08:00 +6°C° 0 mm 1 mps 718 mmHg 77%
    09:00 +8°C° 0 mm 1 mps 717 mmHg 71%
    10:00 +9°C° 0 mm 2 mps 717 mmHg 66%
    11:00 +10°C° 0 mm 2 mps 716 mmHg 64%
    12:00 +12°C° 0 mm 2 mps 716 mmHg 62%
    13:00 +14°C° 0 mm 2 mps 716 mmHg 60%
    14:00 +14°C° 0 mm 2 mps 715 mmHg 62%
    15:00 +14°C° 0 mm 2 mps 715 mmHg 64%
    16:00 +14°C° 0 mm 2 mps 715 mmHg 66%
    17:00 +12°C° 0 mm 2 mps 715 mmHg 74%
    18:00 +9°C° 0 mm 2 mps 715 mmHg 81%
    19:00 +7°C° 0 mm 2 mps 715 mmHg 89%
    20:00 +7°C° 0 mm 1 mps 715 mmHg 90%
    21:00 +7°C° 0 mm 1 mps 715 mmHg 91%
    22:00 +6°C° 0 mm 1 mps 715 mmHg 92%
    23:00 +6°C° 0 mm 1 mps 715 mmHg 91%
    Show more